Flag for U.S.A. Weather past 2 weeks in Dallas, Texas, U.S.A.

61 °F

Mostly cloudy.

Feels Like: 61 °F
Forecast: 58 / 67 °F
Wind: 14 mph from South

Location: Dallas Love Field

Current Time: Nov 25, 2015 at 2:26:23 AM

Latest Report: Nov 25, 2015 at 1:53 AM

Visibility: 10 mi

Pressure: 30.03 "Hg

Humidity: 78%

Dew point: 54 °F

Location of DallasLocation

Historic Weather in Dallas — Graph


Dallas temperature yesterday

Maximum temperature yesterday: 65 °F (at 12:53 PM)
Minimum temperature yesterday: 47 °F (at 6:53 AM)
Average temperature yesterday: 58 °F

Past Weeks' High & Low Weather Summary

High82 °F (Nov 11, 1:53 PM)97% (Nov 16, 1:53 PM)30.38 "Hg (Nov 16, 1:53 PM)
Low33 °F (Nov 22, 6:57 AM)18% (Nov 11, 5:53 PM)29.45 "Hg (Nov 17, 3:53 AM)
Average58 °F60%30.07 "Hg
* Reported Nov 10 12:53 AM — Nov 25 12:53 AM, Dallas, Weather by CustomWeather, © 2015

Note: Actual official high and low records may vary slightly from our data, if they occured in-between our weather recording intervals... More about our weather records


Dallas weather history for previous 24 hours

Time TempWeatherWind HumidityBarometerVisibility
12:53 AM
Wed, Nov 25
62 °FMostly cloudy.17 mph75%30.04 "Hg10 mi
11:53 PM
Tue, Nov 24
62 °FOvercast.14 mph73%30.04 "Hg10 mi
10:53 PM62 °FPartly cloudy.15 mph73%30.05 "Hg10 mi
9:53 PM63 °FPassing clouds.16 mph68%30.04 "Hg10 mi
8:53 PM64 °FOvercast.14 mph65%30.05 "Hg10 mi
7:53 PM64 °FOvercast.12 mph65%30.05 "Hg10 mi
6:53 PM65 °FMostly cloudy.13 mph61%30.04 "Hg10 mi
5:53 PM65 °FPassing clouds.16 mph59%30.03 "Hg10 mi
4:53 PM65 °FMostly cloudy.14 mph59%30.02 "Hg10 mi
3:53 PM65 °FMore clouds than sun.17 mph61%30.02 "Hg10 mi
2:53 PM65 °FMostly cloudy.17 mph56%30.04 "Hg10 mi
1:53 PM65 °FPartly sunny.16 mph54%30.06 "Hg10 mi
12:53 PM65 °FPartly sunny.16 mph52%30.09 "Hg10 mi
11:53 AM62 °FPartly sunny.13 mph54%30.14 "Hg10 mi
10:53 AM59 °FPartly sunny.14 mph54%30.18 "Hg10 mi
9:53 AM57 °FPassing clouds.14 mph49%30.19 "Hg10 mi
8:53 AM53 °FPassing clouds.16 mph55%30.19 "Hg10 mi
7:53 AM49 °FPassing clouds.12 mph64%30.19 "Hg10 mi
6:53 AM47 °FPassing clouds.7 mph69%30.19 "Hg10 mi
5:53 AM49 °FPassing clouds.10 mph64%30.18 "Hg10 mi
4:53 AM50 °FPassing clouds.7 mph59%30.19 "Hg10 mi
3:53 AM51 °FPartly cloudy.9 mph56%30.18 "Hg10 mi
2:53 AM51 °FMostly cloudy.12 mph56%30.17 "Hg10 mi
Weather by CustomWeather, © 2015

See weather overviewHow to use our weather pages